Time,TemperatureF,DewpointF,PressureIn,WindDirection,WindDirectionDegrees,WindSpeedMPH,WindSpeedGustMPH,Humidity,HourlyPrecipIn,Conditions,Clouds,dailyrainin,SolarRadiationWatts/m^2,SoftwareType,DateUTC
2013-03-28 11:52:00,47.0,47.0,30.07,SSW,201,8.0,19.0,99,-99.99,,,0.04,167.000000,,2013-03-28 18:52:00,
2013-03-28 12:02:00,47.0,47.0,30.07,SSW,201,8.0,19.0,99,-99.99,,,0.04,167.000000,,2013-03-28 19:02:00,
2013-03-28 12:12:00,47.0,47.0,30.07,SSW,201,8.0,19.0,99,-99.99,,,0.04,167.000000,,2013-03-28 19:12:00,
2013-03-28 12:42:00,47.0,46.0,30.08,ESE,105,3.0,15.0,98,0.00,,,-99.99,387.000000,,2013-03-28 19:42:00,
2013-03-28 12:52:00,47.0,46.0,30.08,ESE,105,3.0,15.0,98,0.00,,,-99.99,387.000000,,2013-03-28 19:52:00,
2013-03-28 13:02:00,47.0,46.0,30.08,ESE,105,3.0,15.0,98,0.00,,,-99.99,387.000000,,2013-03-28 20:02:00,
2013-03-28 13:12:00,47.0,46.0,30.08,ESE,105,3.0,15.0,98,0.00,,,-99.99,387.000000,,2013-03-28 20:12:00,
2013-03-28 13:42:00,47.0,46.0,30.09,SSE,159,7.0,11.0,98,0.00,,,0.04,465.000000,,2013-03-28 20:42:00,
2013-03-28 13:53:00,47.0,46.0,30.09,SSE,159,7.0,11.0,98,0.00,,,0.04,465.000000,,2013-03-28 20:53:00,
2013-03-28 14:02:00,47.0,46.0,30.09,SSE,159,7.0,11.0,98,0.00,,,0.04,465.000000,,2013-03-28 21:02:00,
2013-03-28 14:12:00,47.0,46.0,30.09,SSE,159,7.0,11.0,98,0.00,,,0.04,465.000000,,2013-03-28 21:12:00,
2013-03-28 14:43:00,49.0,48.0,30.10,SSE,151,8.0,15.0,97,0.00,,,0.04,355.000000,,2013-03-28 21:43:00,
2013-03-28 14:53:00,49.0,48.0,30.10,SSE,151,8.0,15.0,97,0.00,,,0.04,355.000000,,2013-03-28 21:53:00,
2013-03-28 15:02:00,49.0,48.0,30.10,SSE,151,8.0,15.0,97,0.00,,,0.04,355.000000,,2013-03-28 22:02:00,
2013-03-28 15:12:00,49.0,48.0,30.10,SSE,151,8.0,15.0,97,0.00,,,0.04,355.000000,,2013-03-28 22:12:00,
2013-03-28 15:42:00,50.0,49.0,30.09,SW,222,4.0,13.0,95,0.00,,,0.04,604.000000,,2013-03-28 22:42:00,
2013-03-28 15:52:00,50.0,49.0,30.09,SW,222,4.0,13.0,95,0.00,,,0.04,604.000000,,2013-03-28 22:52:00,
2013-03-28 16:02:00,50.0,49.0,30.09,SW,222,4.0,13.0,95,0.00,,,0.04,604.000000,,2013-03-28 23:02:00,
2013-03-28 16:12:00,50.0,49.0,30.09,SW,222,4.0,13.0,95,0.00,,,0.04,604.000000,,2013-03-28 23:12:00,
2013-03-28 16:42:00,50.0,49.0,30.08,SE,126,7.0,13.0,95,0.00,,,0.04,301.000000,,2013-03-28 23:42:00,
2013-03-28 16:52:00,50.0,49.0,30.08,SE,126,7.0,13.0,95,0.00,,,0.04,301.000000,,2013-03-28 23:52:00,
2013-03-28 17:02:00,50.0,49.0,30.08,SE,126,7.0,13.0,95,0.00,,,0.04,301.000000,,2013-03-29 00:02:00,
2013-03-28 17:11:00,50.0,49.0,30.08,SE,126,7.0,13.0,95,0.00,,,0.04,301.000000,,2013-03-29 00:11:00,
2013-03-28 17:42:00,50.0,49.0,30.08,SE,129,9.0,12.0,95,0.00,,,-99.99,109.000000,,2013-03-29 00:42:00,
2013-03-28 17:52:00,50.0,49.0,30.08,SE,129,9.0,12.0,95,0.00,,,-99.99,109.000000,,2013-03-29 00:52:00,
2013-03-28 18:02:00,50.0,49.0,30.08,SE,129,9.0,12.0,95,0.00,,,-99.99,109.000000,,2013-03-29 01:02:00,
2013-03-28 18:12:00,50.0,49.0,30.08,SE,129,9.0,12.0,95,0.00,,,-99.99,109.000000,,2013-03-29 01:12:00,
2013-03-28 18:42:00,50.0,49.0,30.08,SE,134,7.0,14.0,95,0.00,,,-99.99,106.000000,,2013-03-29 01:42:00,
2013-03-28 18:52:00,50.0,49.0,30.08,SE,134,7.0,14.0,95,0.00,,,-99.99,106.000000,,2013-03-29 01:52:00,
2013-03-28 19:02:00,50.0,49.0,30.08,SE,134,7.0,14.0,95,0.00,,,-99.99,106.000000,,2013-03-29 02:02:00,
2013-03-28 19:11:00,50.0,49.0,30.08,SE,134,7.0,14.0,95,0.00,,,-99.99,106.000000,,2013-03-29 02:11:00,
2013-03-28 19:42:00,47.0,46.0,30.08,ENE,58,3.0,9.0,98,0.00,,,-99.99,91.000000,,2013-03-29 02:42:00,
2013-03-28 19:52:00,47.0,46.0,30.08,ENE,58,3.0,9.0,98,0.00,,,-99.99,91.000000,,2013-03-29 02:52:00,
2013-03-28 20:02:00,47.0,46.0,30.08,ENE,58,3.0,9.0,98,0.00,,,-99.99,91.000000,,2013-03-29 03:02:00,
2013-03-28 20:12:00,47.0,46.0,30.08,ENE,58,3.0,9.0,98,0.00,,,-99.99,91.000000,,2013-03-29 03:12:00,
2013-03-28 20:43:00,48.0,47.0,30.10,NE,34,5.0,9.0,98,0.00,,,-99.99,32.000000,,2013-03-29 03:43:00,
2013-03-28 20:53:00,48.0,47.0,30.10,NE,34,5.0,9.0,98,0.00,,,-99.99,32.000000,,2013-03-29 03:53:00,
2013-03-28 21:02:00,48.0,47.0,30.10,NE,34,5.0,9.0,98,0.00,,,-99.99,32.000000,,2013-03-29 04:02:00,
2013-03-28 21:12:00,48.0,47.0,30.10,NE,34,5.0,9.0,98,0.00,,,-99.99,32.000000,,2013-03-29 04:12:00,
2013-03-28 21:43:00,48.0,47.0,30.10,NE,34,7.0,12.0,96,0.00,,,-99.99,4.000000,,2013-03-29 04:43:00,
2013-03-28 21:52:00,48.0,47.0,30.10,NE,34,7.0,12.0,96,0.00,,,-99.99,4.000000,,2013-03-29 04:52:00,
2013-03-28 22:02:00,48.0,47.0,30.10,NE,34,7.0,12.0,96,0.00,,,-99.99,4.000000,,2013-03-29 05:02:00,
2013-03-28 22:12:00,48.0,47.0,30.10,NE,34,7.0,12.0,96,0.00,,,-99.99,4.000000,,2013-03-29 05:12:00,
2013-03-28 22:43:00,46.0,44.0,30.11,NE,36,6.0,11.0,92,0.00,,,-99.99,0.000000,,2013-03-29 05:43:00,
2013-03-28 22:52:00,46.0,44.0,30.11,NE,36,6.0,11.0,92,0.00,,,-99.99,0.000000,,2013-03-29 05:52:00,
2013-03-28 23:02:00,46.0,44.0,30.11,NE,36,6.0,11.0,92,0.00,,,-99.99,0.000000,,2013-03-29 06:02:00,
2013-03-28 23:12:00,46.0,44.0,30.11,NE,36,6.0,11.0,92,0.00,,,-99.99,0.000000,,2013-03-29 06:12:00,
2013-03-28 23:42:00,46.0,42.0,30.11,East,86,11.0,13.0,87,0.00,,,-99.99,0.000000,,2013-03-29 06:42:00,
2013-03-28 23:52:00,46.0,42.0,30.11,East,86,11.0,13.0,87,0.00,,,-99.99,0.000000,,2013-03-29 06:52:00,